Regional Weather Roundup
Issued by NWS Northern Indiana

Home | Current Version | Previous Version | Graphics & Text | Print | Product List | Glossary On
Versions: 1 2 3 4 5 6 7 8 9 10 11 12 13 14 15 16 17 18 19 20 21 22 23 24 25 26 27 28 29 30 31 32 33 34 35 36 37 38 39 40 41 42 43 44 45 46 47 48 49 50
027
ASUS43 KIWX 220610
RWRIWX

KIWX WEATHER ROUNDUP
NATIONAL WEATHER SERVICE NORTHERN INDIANA
100 AM EST THU FEB 22 2018

NOTE: "FAIR" INDICATES FEW OR NO CLOUDS BELOW 12,000 FEET WITH NO
SIGNIFICANT WEATHER AND/OR OBSTRUCTIONS TO VISIBILITY.

* THESE STATIONS ARE NOT UNDER NWS QUALITY CONTROL. THEY ALSO MAY NOT
  REPORT WEATHER SUCH AS PRECIPITATION OR FOG.

INZ001>027-220700-
NORTHERN INDIANA

CITY           SKY/WX    TMP DP  RH WIND       PRES   REMARKS
GARY*          FAIR      32  27  81 NE16      30.57F WCI  21
VALPARAISO     FAIR      31  27  85 NE9       30.55F WCI  23
6HR MIN TEMP:  30; 6HR MAX TEMP:  31;

MICHIGAN CITY* FAIR      30  27  86 NE6       30.58F WCI  24
LAPORTE*       FAIR      29  27  90 NE10      30.56F WCI  20
6HR MIN TEMP:  29; 6HR MAX TEMP:  29; 6HR PCP:  0.06;

SOUTH BEND     FAIR      29  26  89 NE8       30.56F WCI  21
6HR MIN TEMP:  28; 6HR MAX TEMP:  30;

GOSHEN         FAIR      33  29  85 NE9       30.56F WCI  25
6HR MIN TEMP:  33; 6HR MAX TEMP:  34;

MONTICELLO*    FAIR      33  31  93 NE13      30.51F WCI  24
6HR MIN TEMP:  32; 6HR MAX TEMP:  33;

LOGANSPORT*    CLOUDY    34  32  93 NE8       30.53F WCI  27
ROCHESTER*     FAIR      36  32  87 NE9       30.54F
WARSAW*        FAIR      32  32 100 E8G16     30.55F WCI  25
AUBURN*        CLOUDY    36  32  87 NE9       30.57S
FORT WAYNE     CLOUDY    37  35  92 E15       30.55S
6HR MIN TEMP:  37; 6HR MAX TEMP:  38;

HUNTINGTON*    CLOUDY    36  34  93 NE8       30.54S
6HR MIN TEMP:  35; 6HR MAX TEMP:  37;

PERU/GRISSOM   CLOUDY    35  35 100 NE13      30.51F WCI  27
6HR MIN TEMP:  35; 6HR MAX TEMP:  35;

MARION*        CLOUDY    37  34  87 NE14      30.53R FOG
6HR MIN TEMP: -17; 6HR MAX TEMP:  70; 6HR PCP:  0.04;


$$
INZ028>050-220700-
CENTRAL INDIANA

CITY           SKY/WX    TMP DP  RH WIND       PRES   REMARKS
LAFAYETTE      CLOUDY    34  31  88 NE12      30.50F WCI  25
6HR MIN TEMP:  33; 6HR MAX TEMP:  34;

KOKOMO*        CLOUDY    36  33  89 NE12      30.53S
6HR MIN TEMP:  35; 6HR MAX TEMP:  36;

MUNCIE*        LGT RAIN  39  35  86 E14       30.51R
6HR MIN TEMP:  39; 6HR MAX TEMP:  40; 6HR PCP:  0.06;

INDIANAPOLIS   LGT RAIN  39  37  92 NE14      30.47F FOG
6HR MIN TEMP:  37; 6HR MAX TEMP:  39; 6HR PCP:  0.13;


$$
MIZ043>046-050>051-056>058-064>065-071>073-077>080-220700-
SOUTHWEST LOWER MICHIGAN

CITY           SKY/WX    TMP DP  RH WIND       PRES   REMARKS
BATTLE CREEK   FAIR      31  27  85 NE7       30.59F WCI  24
6HR MIN TEMP:  31; 6HR MAX TEMP:  33;

BENTON HARBOR  FAIR      29  23  78 NE6       30.59F WCI  23
6HR MIN TEMP:  29; 6HR MAX TEMP:  30;

COLDWATER*     FAIR      33  32  96 NE9       30.58F WCI  25
6HR MIN TEMP:  32; 6HR MAX TEMP:  34;

HILLSDALE*     MOCLDY    32  28  86 NE7       30.57F WCI  26
HOLLAND        FAIR      28  22  78 NE6       30.62F WCI  22
6HR MIN TEMP:  28; 6HR MAX TEMP:  30;

GRAND RAPIDS   FAIR      28  22  78 NE7       30.62F WCI  21
6HR MIN TEMP:  28; 6HR MAX TEMP:  33;

KALAMAZOO      FAIR      32  26  78 NE6       30.59F WCI  26
6HR MIN TEMP:  31; 6HR MAX TEMP:  34;

STURGIS*       FAIR      33  30  90 NE7       30.57F WCI  27
6HR MIN TEMP:  33; 6HR MAX TEMP:  34;

THREE RIVERS*  FAIR      32  30  90 NE6       30.58F WCI  27
6HR MIN TEMP:  32; 6HR MAX TEMP:  34;


$$
OHZ001>008-015>018-024>025-220700-
NORTHWEST OHIO

CITY           SKY/WX    TMP DP  RH WIND       PRES   REMARKS
WAUSEON*       CLOUDY    34  34 100 NE12      30.60R WCI  25
DEFIANCE       CLOUDY    35  30  82 NE9       30.58S WCI  28
6HR MIN TEMP:  35; 6HR MAX TEMP:  39;

FINDLAY        LGT RAIN  36  27  69 NE13      30.55F
6HR MIN TEMP:  36; 6HR MAX TEMP:  38; 6HR PCP:  0.01;

TOLEDO EXPRESS FAIR      34  31  88 NE9       30.60S WCI  27
6HR MIN TEMP:  34; 6HR MAX TEMP:  38;

TOLEDO METCALF FAIR      33  29  85 NE10G18   30.62S WCI  25
6HR MIN TEMP:  33; 6HR MAX TEMP:  36;

LIMA           LGT RAIN  34  31  88 NE9       30.53F WCI  27
6HR MIN TEMP:  34; 6HR MAX TEMP:  39; 6HR PCP:  0.07;


$$
AND FOR LAKE MICHIGAN COASTAL AND OPEN LAKE BUOY OBSERVATIONS

STATION/POSITION TEMP    WIND        PRES    VSBY  WAVE
                 AIR SEA DIR/SP/G                  HT/PER
                 (F)     (DEG/KT/KT) (MB)    (MI)  (FT/S)
CALUMET HARBOR            20/ 12/ 17 1034.9F
MICHIGAN CITY     30      30/ 22/ 24   N/A

$$
&&




USA.gov is the U.S. government's official web portal to all federal, state and local government web resources and services.